sat.trackr.live / text

‹ back to catalog

GEMINI-POLLUX

NORAD 69000 · 2026-100W

PAYLOAD ACTIVE UNKNOWN

§ Identity

Operator
Country
ROC
Launch date
2026-05-03
Launch site
AFWTR
Launch vehicle
Mass (kg)
RCS (m²)

External: N2YO · Heavens-Above · Gunter

§ Orbital elements

Epoch: 2026-05-25T04:00:03.998880Z

Period
96.54 min
Inclination
97.7396°
Eccentricity
0.0002635
Mean motion
14.91668294 rev/d
Perigee alt
590.9 km
Apogee alt
594.6 km
Semi-major
6,970.9 km
B*
4.4678e-3
RAAN
43.0476°
Arg perigee
183.6414°
Mean anomaly
344.6678°
Rev number
184

§ Raw data

GEMINI-POLLUX1 69000U 26100W   26145.16671295  .00045130  00000+0  44678-2 0  99922 69000  97.7396  43.0476 0002635 183.6414 344.6678 14.91668294  1846

JSON: /api/v1/satellites/69000 · /tle

For live sub-satellite position, see the globe view (requires WebGL).

§ Visibility from observer

Set your observer location to see the next 7 days of passes ≥ 10°. The values pass through the URL so the page stays shareable.

No JS? Fill the form by hand. The geolocation button needs JavaScript.